Regional Weather Roundup
Issued by NWS

Home | Current Version | Previous Version | Graphics & Text | Print | Product List | Glossary Off
Versions: 1 2 3 4 5 6 7 8 9 10 11 12 13 14 15 16 17 18 19 20 21 22 23 24 25 26 27 28 29 30 31 32 33 34 35 36 37 38 39 40 41 42 43 44 45 46 47 48 49 50

000
ASUS43 KTOP 041508
RWRKS

WEATHER ROUNDUP FOR KANSAS
NATIONAL WEATHER SERVICE GOODLAND KS
1000 AM CDT MON MAY 04 2015

NOTE:  "FAIR" INDICATES FEW OR NO CLOUDS BELOW 12,000 FEET WITH NO
SIGNIFICANT WEATHER AND/OR OBSTRUCTIONS TO VISIBILITY.

KSZ001>006-013>018-027>032-041>047-041600-
NORTHWEST KANSAS

CITY           SKY/WX    TMP DP  RH WIND       PRES   REMARKS
GOODLAND       CLOUDY    55  44  66 NE12      30.09F
HAYS           CLOUDY    63  46  55 W3        30.05R
HILL CITY      CLOUDY    59  50  72 NE12      30.05R
RUSSELL        CLOUDY    66  51  58 SW5       30.01S
$$

KSZ061>065-074>080-084>089-041600-
SOUTHWEST KANSAS

CITY           SKY/WX    TMP DP  RH WIND       PRES   REMARKS
DODGE CITY     MOSUNNY   69  55  60 SE9       30.02R
ELKHART          N/A     62  50  65 NW7         N/A
GARDEN CITY    PTSUNNY   64  56  75 E14       30.02R
GREAT BEND     PTSUNNY   70  55  60 SE9       30.01S
LIBERAL        PTSUNNY   68  57  68 S9        30.04R
PRATT          MOSUNNY   70  57  64 S6        30.03S
$$

KSZ066>073-081>083-090>101-041600-
SOUTHEAST KANSAS

CITY           SKY/WX    TMP DP  RH WIND       PRES   REMARKS
CHANUTE        MOSUNNY   72  59  63 S18       30.05S
COFFEYVILLE    SUNNY     73  60  63 S17       30.06R
HUTCHINSON     MOSUNNY   72  59  63 S8        30.02R
MEDICINE LODGE   N/A     67  58  72 SE8       30.01S
NEWTON         MOSUNNY   70  55  60 SW14      30.05R
PARSONS        MOSUNNY   73  60  63 S8        30.07R
WICHITA INTL   PTSUNNY   70  57  63 S13       30.03R
WICHITA JABRA  MOSUNNY   71  57  61 S16       30.03R
WINFIELD       PTSUNNY   73  60  63 S14       30.04S
$$

KSZ007>012-019>026-033>040-048>060-102>105-041600-
NORTHEAST KANSAS

CITY           SKY/WX    TMP DP  RH WIND       PRES   REMARKS
CONCORDIA      CLOUDY    63  58  83 SE12      30.01S
EMPORIA        MOSUNNY   73  59  61 S12       30.02S
LAWRENCE       PTSUNNY   68  59  73 SW3       30.03R
MANHATTAN      PTSUNNY   72  59  63 S6        30.00R
MARYSVILLE     CLOUDY    64  55  72 E14G21    30.00F
OLATHE IND     CLOUDY    68  61  78 S18       30.03S
OLATHE EXE     CLOUDY    67  61  81 S8        30.02S
SALINA         PTSUNNY   71  58  63 S9        30.00R
TOPEKA BILLARD MOSUNNY   70  59  68 SW7       30.02R
TOPEKA FORBES  MOSUNNY   72  60  66 S10       30.01R
$$



USA.gov is the U.S. government's official web portal to all federal, state and local government web resources and services.